This is the latest recevied weather packets stored in our database for station/object PY3MO-11. If no packets are shown the sender has not sent any weather packets the latest 10 day(s).
| Time | Temp. | Humidity | Pressure | Rain* | Wind** | Luminosity | Snow |
|---|---|---|---|---|---|---|---|
| 1777830243 | 16.67° C | 54% | 1020.7 hPa | 0 mm | - | - | - |
| 1777829943 | 16.67° C | 53% | 1020.8 hPa | 0 mm | - | - | - |
| 1777829642 | 17.22° C | 53% | 1020.7 hPa | 0 mm | - | - | - |
| 1777829342 | 17.22° C | 53% | 1020.9 hPa | 0 mm | - | - | - |
| 1777829042 | 17.22° C | 53% | 1020.9 hPa | 0 mm | - | - | - |
| 1777828742 | 16.67° C | 53% | 1020.9 hPa | 0 mm | - | - | - |
| 1777828443 | 16.67° C | 53% | 1021 hPa | 0 mm | - | - | - |
| 1777828144 | 16.67° C | 53% | 1021.2 hPa | 0 mm | - | - | - |
| 1777827843 | 16.67° C | 52% | 1021.3 hPa | 0 mm | - | - | - |
| 1777827543 | 16.67° C | 52% | 1021.5 hPa | 0 mm | - | - | - |
| 1777827243 | 17.22° C | 52% | 1021.6 hPa | 0 mm | - | - | - |
| 1777826943 | 16.67° C | 51% | 1021.5 hPa | 0 mm | - | - | - |
| 1777826643 | 16.67° C | 51% | 1021.6 hPa | 0 mm | - | - | - |
| 1777826343 | 16.67° C | 51% | 1021.8 hPa | 0 mm | - | - | - |
| 1777826043 | 16.67° C | 50% | 1021.8 hPa | 0 mm | - | - | - |
| 1777825742 | 17.22° C | 50% | 1022 hPa | 0 mm | - | - | - |
| 1777825442 | 17.22° C | 51% | 1022.1 hPa | 0 mm | - | - | - |
| 1777825142 | 16.67° C | 50% | 1021.9 hPa | 0 mm | - | - | - |
| 1777824842 | 16.67° C | 51% | 1021.9 hPa | 0 mm | - | - | - |
| 1777824544 | 16.67° C | 50% | 1022.1 hPa | 0 mm | - | - | - |
| 1777824244 | 16.67° C | 51% | 1022 hPa | 0 mm | - | - | - |
| 1777823943 | 16.11° C | 52% | 1022.1 hPa | 0 mm | - | - | - |
| 1777823643 | 15.56° C | 50% | 1022.2 hPa | 0 mm | - | - | - |
| 1777823343 | 15.56° C | 50% | 1022.4 hPa | 0 mm | - | - | - |
| 1777823043 | 16.11° C | 50% | 1022.3 hPa | 0 mm | - | - | - |
* Rain latest hour (hover to see other rain measurements)
** Current wind speed in m/s (hover to see current wind gust speed)